Flag for Cameroon Weather past 2 weeks in Douala, Cameroon

Now
77 °F

Thunderstorms. Passing clouds.


Feels Like: 78 °F
Forecast: 76 / 89 °F
Wind: No wind

Location: Douala Obs.

Current Time: Apr 28, 2015 at 3:34:41 AM

Latest Report: Apr 28, 2015 at 3:00 AM


Visibility: N/A

Pressure: 29.80 "Hg

Humidity: 100%

Dew point: 77 °F

Location of DoualaLocation

Historic Weather in Douala — Graph

°F

Douala temperature yesterday

Maximum temperature yesterday: 93 °F (at 1:00 PM)
Minimum temperature yesterday: 75 °F (at 4:00 AM)
Average temperature yesterday: 84 °F

Past Weeks' High & Low Weather Summary

 TemperatureHumidityPressure
High93 °F (Apr 19, 1:00 PM)100% (Apr 13, 10:00 PM)30.04 "Hg (Apr 13, 10:00 PM)
Low63 °F (Apr 23, 6:00 AM)56% (Apr 27, 1:00 PM)29.74 "Hg (Apr 14, 4:00 PM)
Average83 °F83%29.85 "Hg
* Reported Apr 13 2:00 AM — Apr 28 2:00 AM, Douala, Weather by CustomWeather, © 2015

Note: Actual official high and low records may vary slightly from our data, if they occured in-between our weather recording intervals... More about our weather records

Advertising

Douala weather history for previous 24 hours

 ConditionsComfort  
Time TempWeatherWind HumidityBarometerVisibility
2:00 AM
Tue, Apr 28
79 °FThunderstorms. Passing clouds.No wind94%29.83 "HgN/A
1:00 AM81 °FThunderstorms. Passing clouds.No wind94%29.86 "HgN/A
12:00 AM81 °FThunderstorms. Passing clouds.No wind94%29.86 "HgN/A
11:00 PM
Mon, Apr 27
81 °FThunderstorms. Passing clouds.No wind94%29.86 "HgN/A
10:00 PM82 °FThunderstorms. Passing clouds.No wind89%29.86 "HgN/A
9:00 PM84 °FThunderstorms. Passing clouds.7 mph84%29.83 "HgN/A
8:00 PM84 °FThunderstorms. Partly cloudy.7 mph84%29.80 "HgN/A
7:00 PM86 °FThunderstorms. Passing clouds.9 mph79%29.80 "HgN/A
6:00 PM86 °FScattered clouds.9 mph75%29.77 "HgN/A
5:00 PM88 °FPassing clouds.9 mph75%29.77 "HgN/A
4:00 PM90 °FPassing clouds.9 mph67%29.77 "HgN/A
3:00 PM93 °FScattered clouds.12 mph56%29.77 "HgN/A
2:00 PM93 °FPartly sunny.7 mph56%29.80 "HgN/A
1:00 PM93 °FPartly sunny.No wind56%29.83 "HgN/A
12:00 PM91 °FPartly sunny.5 mph63%29.86 "HgN/A
11:00 AM90 °FPartly sunny.No wind67%29.89 "HgN/A
10:00 AM88 °FScattered clouds.No wind66%29.92 "HgN/A
9:00 AM84 °FScattered clouds.No wind74%29.89 "Hg4 mi
8:00 AM81 °FFog.No wind89%29.89 "Hg2 mi
7:00 AM75 °FFog.No wind100%29.86 "Hg2 mi
6:00 AM75 °FPassing clouds.No wind100%29.83 "Hg4 mi
5:00 AM75 °FPassing clouds.No wind100%29.83 "Hg5 mi
4:00 AM75 °FPassing clouds.No wind100%29.83 "Hg5 mi
3:00 AM77 °FPassing clouds.No wind94%29.83 "Hg5 mi
Weather by CustomWeather, © 2015

See weather overviewHow to use our weather pages